Location: Nianha
(10.8000°N, 4.6333°W)
Time: 13:07:36
(UTC+00:00)

Cosmos 1484 Rocket - Pass Details

Date: 14 November 2019
Orbit: 505 x 561 km, 97.4° (Epoch: 19 January)

Event Time Altitude Azimuth Distance (km) Brightness Sun altitude
Rises 04:38:45 0° 24° (NNE) 2,738 6.5 -23.2°
Reaches altitude 10° 04:41:00 10° 32° (NNE) 1,843 5.7 -22.6°
Maximum altitude 04:44:42 36° 100° (E) 887 4.4 -21.8°
Drops below altitude 10° 04:48:23 10° 168° (SSE) 1,835 5.8 -20.9°
Sets 04:50:37 0° 176° (S) 2,723 6.6 -20.4°
